North Adams, MA

12:02 AM EST on February 22, 2017 (GMT -0500)
Harriman And West

Weather History for KAQW - September, 2014

Change the Weather History Date:

Tuesday, September 30, 2014

  Actual Average Record
Temperature  
Mean Temperature 62 °F -  
Max Temperature 75 °F 63 °F 78 °F (2010)
Min Temperature 59 °F 41 °F 33 °F (2001)
Degree Days  
Heating Degree Days 4    
Growing Degree Days 12 (Base 50)    
Moisture  
Dew Point 55 °F    
Average Humidity 80    
Maximum Humidity 87    
Minimum Humidity 72    
Precipitation  
Precipitation 0.00 in - - ()
Sea Level Pressure  
Sea Level Pressure 30.00 in    
Wind  
Wind Speed 9 mph (East)    
Max Wind Speed 15 mph    
Max Gust Speed -    
Visibility 10 miles    
Events      
Averages and records for this station are not official NWS values.
T = Trace of Precipitation, MM = Missing Value Source: NWS Daily Summary

Daily Weather History Graph

Daily Weather History Graph

Search for Another Location

Airport or City:

Trip Planner

Search our weather history database for the weather conditions in past years. The results will help you decide how hot, cold, wet, or windy it might be!

Date:

Astronomy

Sep. 30, 2014 Rise Set
Actual Time 6:48 AM EDT 6:35 PM EDT
Civil Twilight 6:20 AM EDT 7:03 PM EDT
Nautical Twilight 5:47 AM EDT 7:36 PM EDT
Astronomical Twilight 5:14 AM EDT 8:09 PM EDT
Moon 1:00 PM EDT (9/30) 10:57 PM EDT (9/30)
Length of Visible Light 12h 43m
Length of Day
11h 47m
Waxing Crescent, 38% of the Moon is Illuminated
Sep 30
Waxing Crescent
Oct 1
First Quarter
Oct 8
Full
Oct 15
Last Quarter
Oct 23
New

Hourly Weather History & Observations

Time (EDT) Temp. Dew Point Humidity Pressure Visibility Wind Dir Wind Speed Gust Speed Precip Events Conditions
12:52 AM 62.1 °F 57.0 °F 84% 29.96 in 10.0 mi East 10.4 mph - N/A   Overcast
1:39 AM 61.0 °F 57.0 °F 87% 29.98 in 9.0 mi East 10.4 mph - N/A   Overcast
1:52 AM 61.0 °F 55.9 °F 83% 29.98 in 10.0 mi East 10.4 mph - N/A   Overcast
2:31 AM 60.1 °F 55.9 °F 86% 29.98 in 10.0 mi East 8.1 mph - N/A   Overcast
2:52 AM 60.1 °F 55.0 °F 83% 29.98 in 10.0 mi ESE 15.0 mph - N/A   Overcast
3:22 AM 60.1 °F 55.0 °F 83% 29.97 in 10.0 mi East 10.4 mph - N/A   Mostly Cloudy
3:52 AM 59.0 °F 54.0 °F 83% 29.98 in 10.0 mi East 10.4 mph - N/A   Overcast
4:23 AM 59.0 °F 54.0 °F 83% 29.98 in 10.0 mi East 11.5 mph - N/A   Overcast
4:52 AM 59.0 °F 54.0 °F 83% 29.98 in 10.0 mi East 9.2 mph - N/A   Overcast
5:52 AM 59.0 °F 54.0 °F 83% 29.99 in 10.0 mi East 8.1 mph - N/A   Overcast
6:52 AM 59.0 °F 54.0 °F 83% 30.00 in 10.0 mi East 11.5 mph - N/A   Overcast
7:52 AM 59.0 °F 53.1 °F 81% 30.02 in 10.0 mi East 9.2 mph - N/A   Overcast
8:52 AM 59.0 °F 53.1 °F 81% 30.02 in 10.0 mi East 8.1 mph - N/A   Overcast
9:41 AM 60.1 °F 53.1 °F 78% 30.02 in 10.0 mi East 8.1 mph - N/A   Overcast
9:52 AM 60.1 °F 53.1 °F 78% 30.02 in 10.0 mi East 9.2 mph - N/A   Overcast
10:52 AM 64.0 °F 55.0 °F 73% 30.00 in 10.0 mi East 10.4 mph - N/A   Partly Cloudy
11:06 AM 63.0 °F 54.0 °F 72% 30.00 in 10.0 mi East 6.9 mph - N/A   Mostly Cloudy
11:16 AM 63.0 °F 55.0 °F 75% 30.00 in 10.0 mi East 9.2 mph - N/A   Overcast
11:26 AM 63.0 °F 55.0 °F 75% 30.00 in 10.0 mi East 9.2 mph - N/A   Overcast
11:52 AM 63.0 °F 55.0 °F 75% 29.99 in 10.0 mi SE 10.4 mph - N/A   Overcast
12:52 PM 63.0 °F 55.0 °F 75% 29.99 in 10.0 mi East 8.1 mph - N/A   Overcast
1:52 PM 62.1 °F 55.0 °F 78% 29.99 in 10.0 mi Variable 4.6 mph - N/A   Overcast
2:52 PM 62.1 °F 55.0 °F 78% 29.99 in 10.0 mi East 6.9 mph - N/A   Overcast
3:18 PM 62.1 °F 55.0 °F 78% 29.98 in 10.0 mi Variable 5.8 mph - N/A   Overcast
3:52 PM 63.0 °F 55.0 °F 75% 29.98 in 10.0 mi ESE 11.5 mph - N/A   Mostly Cloudy
4:52 PM 63.0 °F 55.0 °F 75% 29.98 in 10.0 mi East 4.6 mph - N/A   Overcast
5:52 PM 62.1 °F 55.0 °F 78% 29.99 in 10.0 mi East 8.1 mph - N/A   Mostly Cloudy
6:52 PM 60.1 °F 55.0 °F 83% 29.99 in 10.0 mi SE 8.1 mph - N/A   Mostly Cloudy
7:52 PM 60.1 °F 55.0 °F 83% 30.00 in 10.0 mi ESE 6.9 mph - N/A   Overcast
8:52 PM 60.1 °F 55.0 °F 83% 30.01 in 10.0 mi ESE 6.9 mph - N/A   Overcast
9:52 PM 60.1 °F 55.0 °F 83% 30.02 in 10.0 mi East 8.1 mph - N/A   Overcast
10:52 PM 60.1 °F 54.0 °F 80% 30.03 in 10.0 mi ESE 5.8 mph - N/A   Overcast
11:52 PM 60.1 °F 53.1 °F 78% 30.04 in 10.0 mi ESE 5.8 mph - N/A   Overcast